Garrison, ND

3:42 PM CST on December 16, 2017 (GMT -0600)
Garrison

Weather History for KN60 - September, 2013

Change the Weather History Date:

Saturday, September 28, 2013

  Actual Average Record
Temperature  
Mean Temperature 54 °F -  
Max Temperature 63 °F - 85 °F (2010)
Min Temperature 45 °F - 28 °F (1999)
Degree Days  
Heating Degree Days 11    
Month to date heating degree days 104  
Cooling Degree Days 0    
Month to date cooling degree days 61  
Year to date cooling degree days 373  
Growing Degree Days 4 (Base 50)    
Moisture  
Dew Point 41 °F    
Average Humidity 66    
Maximum Humidity 93    
Minimum Humidity 39    
Precipitation  
Precipitation 0.00 in - 0.20 in (2014)
Month to date precipitation 3.19  
Year to date precipitation 25.50  
Sea Level Pressure  
Sea Level Pressure 29.78 in    
Wind  
Wind Speed 10 mph (West)    
Max Wind Speed 23 mph    
Max Gust Speed 31 mph    
T = Trace of Precipitation, MM = Missing Value Source: NWS Daily Summary

Daily Weather History Graph

Daily Weather History Graph

Search for Another Location

Airport or City:

Trip Planner

Search our weather history database for the weather conditions in past years. The results will help you decide how hot, cold, wet, or windy it might be!

Date:

Astronomy

Sep. 28, 2013 Rise Set
Actual Time 7:41 AM CDT 7:30 PM CDT
Civil Twilight 7:10 AM CDT 8:01 PM CDT
Nautical Twilight 6:34 AM CDT 8:37 PM CDT
Astronomical Twilight 5:57 AM CDT 9:13 PM CDT
Moon 1:08 AM CDT (9/28) 4:10 PM CDT (9/28)
Length of Visible Light 12h 50m
Length of Day
11h 49m
Waning Crescent, 36% of the Moon is Illuminated
Sep 28
Waning Crescent
Oct 4
New
Oct 11
First Quarter
Oct 18
Full
Oct 26
Last Quarter

Hourly Weather History & Observations

Time (CDT) Temp. Windchill Dew Point Humidity Pressure Visibility Wind Dir Wind Speed Gust Speed Precip Events Conditions
12:52 AM 48.0 °F - 46.0 °F 93% 29.83 in - WNW 3.5 mph - N/A   Unknown
1:52 AM 48.0 °F - 45.0 °F 89% 29.81 in - WNW 5.8 mph - N/A   Unknown
2:52 AM 46.9 °F - 44.1 °F 90% 29.80 in - WNW 4.6 mph - N/A   Unknown
3:52 AM 46.9 °F - 43.0 °F 86% 29.80 in - WNW 5.8 mph - N/A   Unknown
4:52 AM 46.9 °F - 42.1 °F 83% 29.80 in - West 5.8 mph - N/A   Unknown
5:52 AM 46.0 °F 42.5 °F 41.0 °F 83% 29.80 in - WNW 6.9 mph - N/A   Unknown
6:52 AM 46.0 °F 42.5 °F 41.0 °F 83% 29.79 in - WNW 6.9 mph - N/A   Unknown
7:52 AM 45.0 °F 41.2 °F 41.0 °F 86% 29.79 in - WNW 6.9 mph - N/A   Unknown
8:52 AM 46.0 °F 41.9 °F 41.0 °F 83% 29.78 in - West 8.1 mph - N/A   Unknown
9:52 AM 50.0 °F - 39.9 °F 68% 29.77 in - West 9.2 mph - N/A   Unknown
10:52 AM 53.1 °F - 42.1 °F 66% 29.77 in - WSW 12.7 mph - N/A   Unknown
11:52 AM 57.0 °F - 41.0 °F 55% 29.75 in - West 11.5 mph - N/A   Unknown
12:52 PM 59.0 °F - 41.0 °F 51% 29.75 in - West 13.8 mph - N/A   Unknown
1:52 PM 60.1 °F - 41.0 °F 49% 29.73 in - WNW 13.8 mph 20.7 mph N/A   Unknown
2:52 PM 60.1 °F - 37.0 °F 42% 29.74 in - WNW 17.3 mph 25.3 mph N/A   Unknown
3:52 PM 60.1 °F - 37.9 °F 44% 29.75 in - WNW 20.7 mph 31.1 mph N/A   Unknown
4:52 PM 62.1 °F - 37.0 °F 39% 29.75 in - West 17.3 mph 25.3 mph N/A   Unknown
5:52 PM 60.1 °F - 37.9 °F 44% 29.77 in - West 11.5 mph - N/A   Unknown
6:52 PM 59.0 °F - 39.0 °F 48% 29.77 in - West 5.8 mph - N/A   Unknown
7:52 PM 52.0 °F - 39.9 °F 63% 29.78 in - WSW 6.9 mph - N/A   Unknown
8:52 PM 48.9 °F - 39.0 °F 69% 29.79 in - WSW 5.8 mph - N/A   Unknown
9:52 PM 48.0 °F - 39.9 °F 74% 29.79 in - WSW 6.9 mph - N/A   Unknown
10:52 PM 46.0 °F 42.5 °F 41.0 °F 83% 29.79 in - WSW 6.9 mph - N/A   Unknown
11:52 PM 46.9 °F - 41.0 °F 80% 29.78 in - WSW 6.9 mph - N/A   Unknown